カタログに戻る

STARLINK-11579

運用中通信VLEO
NORAD 63143·PAYLOAD·🇺🇸 United States

打ち上げ Mar 3, 2025 から Cape Canaveral Space Force Station

Loading…

次のパス (今後24時間)

TLE

最新Source: CelesTrak SupGP

元期: Sep 15, 2026, 03:15 UTC

1 63143C 25043M   26258.13590278 -.00028992  00000+0 -22526-3 0  2588
2 63143  43.0005 188.4521 0001437 266.8061 356.2054 15.70844578    19

AllMySatでSTARLINK-11579をリアルタイム追跡

Download on the App Store